Weather History for Kimball, NE

Change the Weather History Date:

Tuesday, January 22, 2013

  Actual Average (KSNY) Record (KSNY)
Temperature  
Mean Temperature 42 °F 29 °F  
Max Temperature 55 °F 42 °F 67 °F (2009)
Min Temperature 28 °F 17 °F -17 °F (1962)
Degree Days  
Heating Degree Days 24 36  
Since 1 July heating degree days 3339  
Moisture  
Dew Point 6 °F    
Average Humidity 26    
Maximum Humidity 41    
Minimum Humidity 12    
Precipitation  
Precipitation 0.00 in 0.00 in 0.29 in (1965)
Month to date precipitation 0.13  
Year to date precipitation 0.13  
Sea Level Pressure  
Sea Level Pressure 30.05 in    
Wind  
Wind Speed 15 mph (WNW)    
Max Wind Speed 26 mph    
Max Gust Speed 33 mph    
Visibility 10 miles    
Events      
T = Trace of Precipitation, MM = Missing Value Source: NWS Daily Summary

Daily Weather History Graph

Daily Weather History Graph

Search for Another Location

Airport:

Trip Planner

Search our weather history database for the weather conditions in past years. The results will help you decide how hot, cold, wet, or windy it might be!

Date:

Astronomy

Jan. 22, 2013 Rise Set
Actual Time 8:13 AM CST 5:59 PM CST
Civil Twilight 7:43 AM CST 6:29 PM CST
Nautical Twilight 7:10 AM CST 7:02 PM CST
Astronomical Twilight 6:37 AM CST 7:35 PM CST
Moon 2:23 PM CST 4:37 AM CST
Length of Visible Light 10h 45m
Length of Day
9h 45m
Waxing Gibbous, 83% of the Moon is Illuminated
Jan 22
Waxing Gibbous
Jan 26
Full
Feb 3
Last Quarter
Feb 10
New
Feb 17
First Quarter

Hourly Weather History & Observations

Time (CST) Temp. Windchill Dew Point Humidity Pressure Visibility Wind Dir Wind Speed Gust Speed Precip Events Conditions
12:15 AM 31.8 °F 22.8 °F 9.0 °F 38% 30.02 in 10.0 mi West 11.5 mph - N/A   Clear
12:35 AM 31.5 °F 21.8 °F 9.3 °F 40% 30.02 in 10.0 mi West 12.7 mph - N/A   Clear
12:55 AM 32.0 °F 22.5 °F 9.5 °F 39% 30.01 in 10.0 mi West 12.7 mph - N/A   Clear
1:15 AM 32.0 °F 22.5 °F 9.5 °F 39% 30.00 in 10.0 mi West 12.7 mph - N/A   Clear
1:55 AM 31.8 °F 21.8 °F 10.0 °F 40% 29.99 in 10.0 mi West 13.8 mph - N/A   Clear
2:15 AM 32.0 °F 22.1 °F 9.5 °F 39% 29.99 in 10.0 mi WNW 13.8 mph - N/A   Clear
2:35 AM 30.6 °F 21.2 °F 9.5 °F 41% 30.00 in 10.0 mi WNW 11.5 mph - N/A   Clear
2:55 AM 31.3 °F 20.7 °F 9.0 °F 39% 30.01 in 10.0 mi WNW 15.0 mph - N/A   Clear
3:15 AM 31.8 °F 21.8 °F 8.2 °F 37% 30.01 in 10.0 mi WNW 13.8 mph - N/A   Clear
3:35 AM 32.4 °F 22.5 °F 7.5 °F 35% 30.01 in 10.0 mi WNW 13.8 mph - N/A   Clear
3:55 AM 32.4 °F 22.1 °F 7.5 °F 35% 30.01 in 10.0 mi WNW 15.0 mph - N/A   Clear
4:15 AM 32.4 °F 22.1 °F 7.3 °F 35% 30.00 in 10.0 mi WNW 15.0 mph - N/A   Clear
4:35 AM 32.4 °F 23.0 °F 7.2 °F 35% 30.00 in 10.0 mi WNW 12.7 mph - N/A   Clear
4:55 AM 31.3 °F 21.6 °F 7.3 °F 37% 30.00 in 10.0 mi WNW 12.7 mph - N/A   Clear
5:15 AM 30.7 °F 20.9 °F 7.2 °F 37% 30.00 in 10.0 mi West 12.7 mph - N/A   Clear
5:35 AM 29.1 °F 18.9 °F 7.3 °F 40% 30.00 in 10.0 mi West 12.7 mph - N/A   Clear
5:55 AM 28.8 °F 20.2 °F 6.8 °F 40% 30.01 in 10.0 mi WNW 9.2 mph - N/A   Clear
6:15 AM 30.0 °F 20.0 °F 7.0 °F 38% 30.01 in 10.0 mi WNW 12.7 mph - N/A   Clear
6:35 AM 31.6 °F 20.4 °F 6.3 °F 34% 30.02 in 10.0 mi WNW 17.3 mph - N/A   Clear
6:55 AM 29.1 °F 17.1 °F 6.4 °F 38% 30.02 in 10.0 mi WNW 17.3 mph - N/A   Clear
7:15 AM 34.0 °F 22.4 °F 6.8 °F 32% 30.03 in 10.0 mi WNW 20.7 mph - N/A   Clear
7:35 AM 36.0 °F 25.3 °F 7.0 °F 30% 30.03 in 10.0 mi WNW 19.6 mph 26.5 mph N/A   Clear
7:55 AM 35.6 °F 25.2 °F 7.2 °F 31% 30.05 in 10.0 mi WNW 18.4 mph - N/A   Clear
8:15 AM 35.6 °F 25.9 °F 7.0 °F 30% 30.05 in 10.0 mi WNW 16.1 mph - N/A   Clear
8:35 AM 33.4 °F 23.9 °F 7.3 °F 34% 30.05 in 10.0 mi WNW 13.8 mph - N/A   Clear
8:55 AM 34.2 °F 25.2 °F 7.5 °F 33% 30.06 in 10.0 mi WNW 12.7 mph - N/A   Clear
9:35 AM 39.9 °F 31.8 °F 7.5 °F 26% 30.07 in 10.0 mi WNW 15.0 mph - N/A   Clear
9:55 AM 41.4 °F 33.6 °F 7.3 °F 25% 30.07 in 10.0 mi WNW 15.0 mph - N/A   Clear
10:15 AM 43.2 °F 36.6 °F 7.9 °F 24% 30.08 in 10.0 mi WNW 12.7 mph - N/A   Clear
10:35 AM 46.4 °F 39.2 °F 7.7 °F 21% 30.08 in 10.0 mi WNW 18.4 mph - N/A   Clear
10:55 AM 49.3 °F - 5.4 °F 17% 30.08 in 10.0 mi NW 23.0 mph 33.4 mph N/A   Clear
11:15 AM 50.4 °F - 3.6 °F 15% 30.08 in 10.0 mi NW 26.5 mph 31.1 mph N/A   Clear
11:35 AM 51.1 °F - 3.6 °F 14% 30.08 in 10.0 mi NW 20.7 mph 32.2 mph N/A   Clear
11:55 AM 51.8 °F - 2.8 °F 14% 30.08 in 10.0 mi WNW 24.2 mph 29.9 mph N/A   Clear
12:15 PM 53.2 °F - 2.8 °F 13% 30.07 in 10.0 mi NW 19.6 mph 31.1 mph N/A   Clear
12:35 PM 53.2 °F - 1.6 °F 12% 30.06 in 10.0 mi NW 24.2 mph 29.9 mph N/A   Clear
12:55 PM 53.8 °F - 1.4 °F 12% 30.07 in 10.0 mi NW 23.0 mph 27.6 mph N/A   Clear
1:15 PM 54.3 °F - 2.1 °F 12% 30.07 in 10.0 mi WNW 24.2 mph 29.9 mph N/A   Clear
1:35 PM 54.5 °F - 2.3 °F 12% 30.05 in 10.0 mi NW 24.2 mph 32.2 mph N/A   Clear
1:55 PM 54.5 °F - 2.3 °F 12% 30.04 in 10.0 mi NW 21.9 mph 29.9 mph N/A   Clear
2:15 PM 54.7 °F - 2.7 °F 12% 30.04 in 10.0 mi NW 21.9 mph 33.4 mph N/A   Clear
2:35 PM 55.0 °F - 3.0 °F 12% 30.04 in 10.0 mi NW 20.7 mph 31.1 mph N/A   Clear
2:55 PM 55.0 °F - 3.2 °F 12% 30.04 in 10.0 mi NW 21.9 mph 29.9 mph N/A   Clear
3:15 PM 55.0 °F - 3.4 °F 12% 30.04 in 10.0 mi NNW 20.7 mph 28.8 mph N/A   Clear
3:35 PM 55.0 °F - 3.4 °F 12% 30.04 in 10.0 mi NW 19.6 mph 26.5 mph N/A   Clear
3:55 PM 54.9 °F - 3.2 °F 12% 30.04 in 10.0 mi NNW 21.9 mph 27.6 mph N/A   Clear
4:15 PM 54.5 °F - 3.7 °F 13% 30.03 in 10.0 mi NW 19.6 mph 28.8 mph N/A   Clear
4:35 PM 54.0 °F - 3.9 °F 13% 30.03 in 10.0 mi NW 18.4 mph 25.3 mph N/A   Clear
4:55 PM 53.1 °F - 4.1 °F 14% 30.04 in 10.0 mi NNW 11.5 mph 19.6 mph N/A   Clear
5:15 PM 50.2 °F - 4.1 °F 15% 30.05 in 10.0 mi NNW 12.7 mph - N/A   Clear
5:35 PM 49.5 °F - 4.8 °F 16% 30.05 in 10.0 mi NNW 13.8 mph - N/A   Clear
5:55 PM 47.5 °F - 5.9 °F 18% 30.06 in 10.0 mi NNW 16.1 mph - N/A   Clear
6:15 PM 45.9 °F 40.4 °F 5.9 °F 19% 30.08 in 10.0 mi NNW 11.5 mph - N/A   Clear
6:35 PM 44.6 °F 39.7 °F 5.9 °F 20% 30.08 in 10.0 mi NW 9.2 mph 17.3 mph N/A   Clear
6:55 PM 40.1 °F 33.6 °F 6.4 °F 25% 30.08 in 10.0 mi WNW 10.4 mph - N/A   Clear
7:15 PM 37.6 °F 30.5 °F 6.3 °F 27% 30.08 in 10.0 mi NW 10.4 mph - N/A   Clear
7:35 PM 37.2 °F 30.0 °F 5.9 °F 27% 30.09 in 10.0 mi NW 10.4 mph - N/A   Clear
7:55 PM 38.3 °F 31.9 °F 5.5 °F 26% 30.09 in 10.0 mi NW 9.2 mph - N/A   Clear
8:15 PM 38.5 °F 31.6 °F 5.2 °F 25% 30.10 in 10.0 mi NW 10.4 mph - N/A   Clear
8:35 PM 35.6 °F 27.5 °F 4.8 °F 28% 30.09 in 10.0 mi WNW 11.5 mph - N/A   Clear
8:55 PM 38.8 °F 30.0 °F 3.2 °F 23% 30.09 in 10.0 mi WNW 16.1 mph - N/A   Clear
9:15 PM 39.4 °F 31.8 °F 2.5 °F 21% 30.09 in 10.0 mi West 12.7 mph - N/A   Clear
9:35 PM 33.6 °F 26.8 °F 2.5 °F 27% 30.09 in 10.0 mi West 8.1 mph - N/A   Clear
9:55 PM 31.1 °F 23.1 °F 3.7 °F 31% 30.10 in 10.0 mi WNW 9.2 mph - N/A   Clear
10:15 PM 30.2 °F 21.3 °F 3.4 °F 32% 30.10 in 10.0 mi West 10.4 mph - N/A   Clear
10:35 PM 33.4 °F 25.9 °F 5.0 °F 30% 30.10 in 10.0 mi West 9.2 mph - N/A   Clear
10:55 PM 33.6 °F 25.0 °F 5.5 °F 31% 30.10 in 10.0 mi West 11.5 mph - N/A   Clear
11:15 PM 33.8 °F 24.8 °F 5.7 °F 31% 30.10 in 10.0 mi WSW 12.7 mph - N/A   Clear
11:35 PM 33.8 °F 24.8 °F 4.6 °F 29% 30.10 in 10.0 mi West 12.7 mph - N/A   Clear
11:55 PM 33.4 °F 24.3 °F 3.9 °F 29% 30.11 in 10.0 mi WSW 12.7 mph - N/A   Clear